Tracking 22454 objects as of 5-Mar-2021
HD Live streaming from Space Station
objects crossing your sky now

FREGAT DEB

Track FREGAT DEB now!
10-day predictions


NORAD ID: 45959
Int'l Code: 2011-037FQ
Perigee: 434.6 km
Apogee: 982.1 km
Inclination: 51.2 °
Period: 98.8 minutes
Semi major axis: 7079 km
RCS: Unknown
Launch date: July 18, 2011
Source: Commonwealth of Independent States (former USSR) (CIS)
Launch site: TYURATAM MISSILE AND SPACE COMPLEX (TTMTR)

Note: This is SATELLITE DEBRIS
aabbcc
Your satellite tracking list
Your tracking list is empty




NASA's NSSDC Master Catalog

Two Line Element Set (TLE):
1 45959U 11037FQ  21060.89440679  .04107941  00000-0  28245+0 0  9996
2 45959  51.2314 317.2329 0386735  13.6557 347.4503 14.57518888 26757
Source of the keplerian elements: AFSPC